Home   Weather   Guayaquil   Past weeks

Flag for Ecuador Past Weather in Guayaquil, Ecuador — Yesterday and Last 2 Weeks

Now
79 °F

Passing clouds.


Feels Like: 82 °F
Forecast: 71 / 76 °F
Wind: 2 mph from North

Location: Guayaquil / Simon Bolivar

Current Time: Feb 25, 2017 at 4:27:05 am

Latest Report: Feb 25, 2017 at 4:00 am


Visibility: N/A

Pressure: 29.83 "Hg

Humidity: 89%

Dew Point: 75 °F

Location of GuayaquilLocation

Past Weather in Guayaquil — Graph

°F

Guayaquil Temperature Yesterday

Maximum temperature yesterday: 88 °F (at 12:00 pm)
Minimum temperature yesterday: 77 °F (at 7:00 am)
Average temperature yesterday: 82 °F

High & Low Weather Summary for the Past Weeks

 TemperatureHumidityPressure
High91 °F (Feb 11, 2:00 pm)100% (Feb 10, 6:00 am)30.01 "Hg (Feb 10, 6:00 am)
Low73 °F (Feb 22, 5:00 am)55% (Feb 11, 3:00 pm)29.71 "Hg (Feb 11, 4:00 pm)
Average81 °F80%29.85 "Hg
* Reported Feb 10 3:00 am — Feb 25 3:00 am, Guayaquil, Weather by CustomWeather, © 2017

Note: Actual official high and low records may vary slightly from our data, if they occured in-between our weather recording intervals... More about our weather records

Advertising

Guayaquil Weather History for the Previous 24 Hours

Scroll right to see more
 ConditionsComfort  
Time TempWeatherWind HumidityBarometerVisibility
3:00 am
Sat, Feb 25
79 °FPassing clouds.5 mph89%29.83 "HgN/A
2:00 am79 °FPassing clouds.6 mph89%29.86 "HgN/A
1:00 am81 °FPassing clouds.3 mph84%29.86 "HgN/A
12:00 am79 °FPassing clouds.1 mph89%29.89 "HgN/A
11:00 pm
Fri, Feb 24
81 °FPassing clouds.7 mph89%29.89 "HgN/A
10:29 pm81 °FPartly cloudy.No wind84%29.86 "HgN/A
10:00 pm79 °FLight rain. Mostly cloudy.2 mph89%29.86 "Hg5 mi
9:00 pm81 °FPartly cloudy.3 mph74%29.83 "HgN/A
8:00 pm79 °FThundershowers. Partly cloudy.8 mph84%29.80 "HgN/A
7:00 pm79 °FScattered showers. Partly cloudy.12 mph84%29.77 "HgN/A
6:00 pm82 °FBroken clouds.15 mph74%29.74 "HgN/A
5:00 pm82 °FPartly sunny.15 mph79%29.74 "HgN/A
4:00 pm88 °FScattered showers. Broken clouds.12 mph70%29.74 "HgN/A
3:00 pm84 °FScattered showers. Scattered clouds.8 mph74%29.74 "HgN/A
2:00 pm86 °FSprinkles. Scattered clouds.8 mph70%29.77 "HgN/A
1:00 pm88 °FLight rain. Scattered clouds.5 mph66%29.83 "HgN/A
12:00 pm88 °FScattered clouds.3 mph66%29.86 "HgN/A
11:00 am86 °FBroken clouds.3 mph70%29.86 "HgN/A
10:00 am82 °FBroken clouds.7 mph79%29.89 "HgN/A
9:00 am82 °FPartly sunny.7 mph79%29.89 "HgN/A
8:00 am79 °FBroken clouds.3 mph84%29.86 "HgN/A
7:00 am77 °FBroken clouds.6 mph89%29.86 "HgN/A
6:00 am79 °FPassing clouds.5 mph84%29.83 "HgN/A
5:00 am81 °FPassing clouds.3 mph84%29.80 "HgN/A
4:00 am81 °FPassing clouds.3 mph84%29.80 "HgN/A
Weather by CustomWeather, © 2017

See weather overviewHow to use our weather pages